Regional Weather Roundup
Issued by NWS Kansas City/Pleasant Hill, MO

Home | Current Version | Previous Version | Graphics & Text | Print | Product List | Glossary Off
Versions: 1 2 3 4 5 6 7 8 9 10 11 12 13 14 15 16 17 18 19 20 21 22 23 24 25 26 27

000
ASUS43 KEAX 300710
RWREAX

WEATHER ROUNDUP FOR EASTERN KANSAS AND NORTHWEST MISSOURI
NATIONAL WEATHER SERVICE KANSAS CITY/PLEASANT HILL MO
200 AM CDT FRI SEP 30 2016

KSZ040-057-103>105-MOZ028-029-037-043-300800-
...KANSAS CITY METROPOLITAN AREA...

CITY           SKY/WX    TMP DP  RH WIND       PRES   REMARKS
K.C. INTL      PTCLDY    54  46  74 N5        30.26F
K.C. DOWNTOWN  CLEAR     57  50  77 CALM      30.25F
LEES SUMMIT    CLEAR     56  50  80 N5        30.26F
OLATHE - IXD   CLEAR     52  49  89 NW3       30.27F
OLATHE - OJC   CLEAR     55  48  77 N6        30.26F
LAWRENCE       CLEAR     50  49  96 W6        30.27F

$$

MOZ001>008-011>017-020>025-030>033-038>040-044>046-053-054-300800-
...NORTHERN AND CENTRAL MISSOURI...

CITY           SKY/WX    TMP DP  RH WIND       PRES   REMARKS
ST. JOSEPH     CLEAR     51  49  92 CALM      30.28F
MOSBY          SUNNY     52  50  93 CALM      30.26F
WHITEMAN AFB   CLEAR     54  52  94 N5        30.22F
CLINTON        CLEAR     50  48  93 CALM      30.23S
SEDALIA        CLEAR     55  50  83 NW7       30.23F
WARSAW         NOT AVBL
CHILLICOTHE      N/A     57  49  74 N3        30.27S
KIRKSVILLE     CLEAR     54  48  80 N5        30.24F

$$

MOZ041-047>049-056>058-063>065-088>090-097-300800-
...EASTERN AND SOUTHERN MISSOURI...

CITY           SKY/WX    TMP DP  RH WIND       PRES   REMARKS
ST. LOUIS INTL CLOUDY    62  56  80 N9        30.15S
SPIRIT OF STL  CLOUDY    62  58  86 N6        30.14F
COLUMBIA       CLEAR     57  52  83 N8        30.20S
JEFFERSON CITY CLEAR     60  53  77 N3        30.19S
ROLLA          MOCLDY    59  54  83 N3        30.17S
OSAGE BEACH    PTCLDY    58  52  80 CALM      30.21S
SPRINGFIELD    CLEAR     55  47  74 NW6       30.20F
BRANSON        PTCLDY    55  48  76 W3        30.21F
JOPLIN         CLEAR     49  47  93 CALM      30.24F
WEST PLAINS    CLEAR     57  50  77 N6        30.18F

$$

IAZ060-094-KSZ022-034>040-054-083-096-NEZ052-066-093-300800-
...KANSAS...SOUTHEAST NEBRASKA AND IOWA...

CITY           SKY/WX    TMP DP  RH WIND       PRES   REMARKS
TOPEKA         CLEAR     50  47  89 CALM      30.28F FOG
MANHATTAN      CLEAR     48  46  93 CALM      30.30F
EMPORIA        CLEAR     50  48  93 NW5       30.29S
CHANUTE        CLEAR     51  48  89 NW5       30.26F
WICHITA        PTCLDY    53  50  89 NW5       30.29F
OMAHA          CLEAR     50  45  83 N7        30.32F
LINCOLN        CLEAR     46  44  93 N3        30.33F
FALLS CITY     CLEAR     51  47  86 NW5       30.29F
LAMONI         CLEAR     52  48  86 N7        30.28F
DES MOINES     CLEAR     58  50  75 NE8       30.29F

$$





USA.gov is the U.S. government's official web portal to all federal, state and local government web resources and services.